GFSMA_700_rhum_063.txt.gz
RH
51 51 54 59 67 85 78 75 73 70 62 49 46 47 47 47 47 46 42 36 30 28 27 24 22 21 19 19 18 17 17 16 15 14 13 13 12 14 19 26 27 27 27
56 61 63 72 82 84 78 77 75 63 54 49 50 52 52 50 46 39 34 32 30 27 24 22 20 18 18 17 16 16 14 14 14 14 14 13 12 13 13 14 18 27 30
82 82 76 83 87 85 82 83 71 57 52 54 53 54 52 44 34 33 34 32 28 24 20 18 16 15 14 13 14 13 13 12 12 12 15 15 14 13 12 13 14 17 25
79 91 87 96 97 92 91 89 71 57 55 58 56 52 44 35 36 36 35 31 27 21 18 15 14 13 12 12 12 11 10 10 10 10 10 10 12 14 14 12 13 14 17
59 66 71 78 97 99 97 76 61 57 59 54 49 49 42 42 39 38 35 28 22 17 14 12 11 11 11 12 11 10 11 10 11 11 11 9 9 9 11 13 13 11 12
56 56 57 63 81 94 75 60 63 63 54 53 55 56 53 48 43 39 30 20 14 13 11 10 10 10 11 11 11 10 11 12 13 13 14 23 21 19 11 10 12 13 12
63 60 61 63 65 64 66 69 66 60 58 58 58 52 52 49 45 34 23 15 11 10 8 9 9 10 12 14 17 21 24 23 20 25 26 28 32 31 30 24 15 13 11
62 61 58 65 68 67 65 62 61 63 65 61 59 58 53 45 39 27 21 17 14 11 9 8 7 8 11 16 20 28 37 41 52 56 60 59 55 47 42 34 24 18 13
68 71 73 62 60 66 62 66 69 68 66 65 61 53 49 41 33 24 20 16 11 8 6 5 4 6 11 21 33 44 58 62 60 57 59 55 40 32 33 33 26 17 14
77 74 70 71 68 70 78 70 68 69 67 60 56 52 42 30 24 23 15 11 8 6 4 5 6 16 31 50 62 66 63 62 66 65 60 54 47 36 28 29 31 37 15
75 73 85 86 79 75 100 84 69 66 60 57 54 43 28 20 15 10 9 7 6 5 6 6 19 50 80 84 75 70 61 58 64 60 62 65 54 38 37 62 25 28 82
81 89 88 90 100 98 99 77 68 62 51 49 46 33 19 12 7 6 6 5 5 5 7 12 80 99 94 79 80 72 66 58 54 54 50 39 34 38 47 46 50 24 29
100 97 93 96 98 97 95 77 67 51 42 39 25 16 10 6 6 6 6 6 7 7 9 23 68 74 40 83 44 69 65 72 72 66 44 19 19 20 22 17 12 10 11
99 98 100 100 86 92 89 74 55 36 38 34 21 15 10 7 7 8 9 10 10 12 15 29 38 42 54 56 86 91 63 55 36 22 14 14 15 15 15 15 13 11 10
99 98 97 99 97 97 94 69 44 62 82 66 37 16 8 7 8 9 11 14 29 24 28 35 62 66 65 91 76 65 54 17 15 14 12 11 11 13 14 15 16 15 14
98 100 100 99 100 86 73 66 79 90 78 44 18 10 8 9 11 13 17 22 36 53 57 60 91 89 68 71 58 23 16 13 12 12 12 13 14 15 16 16 16 16 15
99 96 100 99 88 85 84 75 76 54 24 11 7 8 10 11 14 20 27 39 57 76 86 88 81 77 54 19 17 14 12 11 12 14 16 18 18 18 19 19 18 19 24
79 91 97 87 84 78 70 34 17 11 7 7 9 11 14 18 23 30 45 70 81 83 90 76 55 18 19 15 12 10 11 14 17 22 27 31 33 34 35 36 42 51 54
93 88 99 93 82 40 54 41 8 7 7 8 11 15 19 25 28 35 57 91 98 89 89 32 19 18 14 14 11 12 15 21 36 49 56 59 59 58 59 60 60 59 59
96 99 96 91 76 34 13 7 7 7 7 10 14 19 24 29 34 45 72 100 98 92 30 24 21 16 15 13 12 12 17 39 56 68 72 65 65 65 68 68 65 63 62
98 96 94 78 33 14 7 7 7 7 8 12 17 23 30 36 40 50 98 100 98 43 26 26 20 17 14 12 12 16 30 50 61 67 63 67 69 70 70 68 66 64 61
93 94 82 40 10 7 8 7 8 8 10 16 22 28 37 43 46 50 67 71 46 25 27 26 21 17 14 13 13 22 42 61 58 66 66 66 72 68 71 70 67 60 52
96 83 35 9 8 8 9 9 10 11 14 19 25 31 44 49 48 41 32 30 28 26 29 26 22 19 15 16 14 19 44 66 68 70 71 60 71 65 73 69 70 65 59
86 33 9 9 10 10 11 12 12 13 16 24 30 37 49 54 49 36 28 23 28 28 31 30 25 21 18 17 18 22 42 61 69 73 82 59 62 52 58 61 67 63 67
17 8 9 10 11 12 14 13 13 15 19 33 38 46 60 60 49 34 25 22 28 30 33 33 29 24 20 18 20 24 43 64 70 74 90 63 63 48 58 73 75 61 63
9 10 11 12 13 14 16 15 15 16 22 43 48 58 72 68 58 38 26 24 28 31 34 36 33 28 22 21 24 32 44 62 76 72 95 68 84 75 45 75 82 75 66

GFSMA_700_rhum_069.txt.gz
RH
44 46 51 60 66 67 72 81 85 84 83 80 72 64 62 59 59 53 49 46 49 48 45 42 39 35 30 24 19 17 15 14 12 12 13 13 13 13 14 15 15 14 13
49 61 67 71 74 80 84 84 89 89 84 78 72 67 63 63 59 57 56 54 51 46 43 42 41 36 29 23 17 16 17 16 15 13 12 11 11 11 12 12 12 14 14
77 80 74 67 79 74 70 88 89 85 81 73 66 66 68 66 61 58 55 51 47 43 42 42 41 36 30 23 20 21 23 20 18 14 12 11 10 10 10 10 10 10 11
71 69 66 59 66 73 78 87 84 80 72 73 73 70 69 62 56 52 44 43 42 42 43 43 42 38 31 25 22 22 21 20 18 16 15 15 15 13 11 9 9 9 9
61 67 62 67 73 76 76 85 81 74 78 70 56 57 60 55 49 44 43 41 44 46 46 44 40 36 31 27 23 20 17 16 15 14 15 16 16 15 13 11 9 8 8
64 61 68 69 66 66 70 74 77 76 72 58 56 57 54 57 55 49 43 44 50 51 47 41 34 30 27 24 21 18 15 12 11 12 11 17 20 17 14 13 11 10 8
56 70 70 68 66 67 72 76 67 62 59 57 58 59 66 65 57 53 48 49 52 53 53 49 43 34 28 23 20 17 14 12 10 8 8 29 84 75 42 21 16 12 8
64 68 66 66 67 70 74 76 73 64 71 60 72 66 62 60 57 52 51 54 58 57 54 52 47 41 37 33 24 16 13 10 7 6 8 15 36 49 36 40 47 38 82
65 61 63 68 76 74 71 75 78 73 76 81 69 63 71 68 66 61 63 62 65 62 59 53 46 39 28 21 17 13 9 7 6 9 20 39 53 56 65 78 65 89 34
61 62 68 79 89 90 88 79 75 71 70 71 64 70 69 71 70 65 64 66 66 60 51 38 31 25 19 13 8 6 6 7 9 14 30 51 67 75 84 99 91 65 96
61 65 79 84 93 97 90 98 97 97 64 79 82 73 76 74 71 67 64 62 50 33 21 10 6 5 6 6 6 7 8 9 15 31 51 64 59 43 46 74 74 74 78
65 73 83 94 99 96 99 99 99 78 77 97 80 77 75 75 73 61 40 21 8 5 4 4 5 7 8 9 10 11 14 16 21 27 32 32 49 39 43 43 44 70 90
72 80 84 90 99 96 99 99 90 92 69 85 88 78 74 65 42 24 9 5 4 4 4 5 7 9 11 14 19 27 32 37 42 42 42 41 44 59 65 46 45 30 25
75 73 79 89 100 100 92 100 69 87 83 90 84 77 51 34 23 7 5 5 4 5 5 5 9 12 18 24 32 41 50 55 72 81 63 60 61 52 30 16 13 12 11
72 75 88 100 100 98 81 73 70 93 89 88 79 48 42 29 7 5 5 6 6 6 6 10 14 18 30 43 52 61 69 71 69 56 25 17 14 10 8 8 7 7 8
86 96 84 99 97 75 80 86 89 88 84 82 59 52 28 8 5 5 6 6 8 11 10 17 23 29 47 62 71 73 70 39 18 16 12 10 8 8 8 7 8 8 10
91 99 92 99 93 82 99 86 90 83 81 76 58 30 10 6 6 6 6 7 9 13 16 19 27 37 52 76 77 55 23 20 15 12 9 8 8 8 8 11 16 22 27
99 81 93 92 84 97 93 93 85 82 78 59 34 12 7 7 7 7 8 9 10 16 19 28 40 40 51 74 64 22 22 18 14 11 10 10 8 8 14 28 46 53 54
75 92 78 95 95 96 94 86 87 77 69 34 11 8 8 9 9 9 9 10 14 20 28 39 42 42 46 49 27 23 21 18 15 13 12 10 9 16 40 51 54 53 54
98 88 96 84 99 91 90 90 81 83 50 12 9 9 10 11 11 11 11 13 20 25 36 47 46 42 36 29 22 25 22 20 16 15 13 11 13 40 52 53 53 53 55
83 69 90 96 94 92 88 85 71 30 11 10 11 12 12 13 13 13 14 17 28 33 44 54 46 37 29 26 25 28 25 21 18 17 16 11 30 57 58 52 52 54 54
84 99 96 92 94 82 50 24 12 10 10 11 12 14 15 16 16 16 17 19 35 42 55 58 46 35 28 28 28 30 28 24 20 19 16 12 40 52 58 57 54 50 47
97 96 88 88 57 30 15 11 11 11 12 13 15 17 19 18 18 18 21 26 38 52 65 60 49 34 27 29 29 31 31 28 23 21 17 14 31 52 61 58 48 40 38
98 88 77 45 27 15 12 12 12 13 15 16 18 20 20 18 18 27 26 30 48 64 75 73 57 37 28 30 29 32 34 32 27 22 21 16 33 52 64 61 52 54 51
87 66 40 20 14 13 14 14 16 17 18 19 19 17 19 19 29 40 34 37 57 76 92 86 71 42 32 32 32 32 35 35 30 25 25 20 35 44 65 68 66 86 72
56 29 15 13 13 14 16 18 19 19 16 12 11 10 14 30 49 49 45 45 49 90 99 96 92 56 38 35 34 33 36 39 34 30 29 23 30 53 56 68 76 96 76

GFSMA_700_rhum_072.txt.gz
RH
51 53 53 55 64 77 76 76 81 82 80 80 74 70 64 60 63 61 55 53 52 46 40 36 34 35 37 38 35 30 24 18 17 18 16 14 13 12 11 12 13 13 14
45 48 59 68 77 84 83 79 68 71 69 66 64 64 64 66 63 59 53 47 42 38 31 31 36 37 37 37 38 35 29 24 22 23 19 16 13 12 11 10 10 10 11
63 78 85 78 68 68 65 61 56 61 73 68 70 67 50 49 51 52 49 45 41 37 31 31 36 39 39 38 36 35 33 32 30 27 23 19 17 15 14 14 12 10 9
76 85 78 64 55 59 60 57 64 74 70 67 64 61 47 48 51 52 55 55 50 42 36 38 42 44 44 43 39 35 32 30 29 26 24 23 22 20 19 18 16 15 12
72 74 65 56 59 60 59 56 61 69 61 61 60 54 54 55 56 59 61 57 49 44 42 43 48 48 48 47 45 40 34 29 27 27 29 28 26 25 24 22 21 19 17
77 60 56 58 61 63 62 64 66 68 66 63 62 58 52 59 58 58 56 54 52 49 49 53 56 55 52 51 49 46 42 39 34 25 18 16 18 20 20 23 23 21 19
70 56 57 59 62 65 66 66 69 75 74 69 65 54 58 56 45 53 48 49 53 52 54 54 52 50 54 51 50 47 43 36 29 22 16 13 10 9 8 16 10 12 8
56 55 57 57 62 66 68 70 68 68 66 70 65 46 51 59 42 46 46 53 56 57 55 51 49 47 46 43 40 37 35 31 24 16 12 10 9 11 18 25 86 99 97
57 59 54 58 62 66 71 81 80 79 77 76 77 72 64 65 60 60 58 54 57 55 50 43 34 27 21 14 9 7 9 4 4 4 5 6 8 14 30 42 59 64 94
61 54 54 58 68 78 86 91 94 89 97 94 85 68 48 60 71 67 65 62 55 43 33 19 8 4 4 4 4 3 3 3 3 4 6 7 11 26 60 72 74 92 66
58 55 57 61 77 83 91 99 92 84 100 97 81 61 61 65 73 67 57 50 38 21 6 4 4 5 5 4 4 4 4 4 5 6 8 12 19 29 42 43 44 47 78
56 56 60 70 80 88 100 100 98 99 97 83 63 73 71 75 74 64 49 37 19 5 4 5 6 6 5 5 5 5 5 7 8 11 14 19 27 33 37 39 43 44 83
59 61 70 81 94 98 99 84 98 96 85 74 72 73 74 73 65 54 42 25 7 4 5 6 7 6 6 6 6 6 9 11 16 21 28 36 45 53 59 52 50 55 55
68 68 76 83 70 72 100 100 97 93 75 80 73 75 74 69 59 48 25 8 5 5 6 12 86 19 9 7 8 9 21 19 19 36 48 54 58 60 58 46 36 23 15
75 82 77 75 81 95 98 99 90 65 74 75 78 75 72 67 56 32 13 6 6 7 8 16 41 46 11 11 17 17 26 35 39 51 58 47 24 16 13 10 9 8 8
69 78 96 98 99 98 98 90 65 67 75 82 75 73 72 62 40 16 7 7 8 8 9 14 21 76 43 17 33 24 30 37 44 34 20 17 13 11 9 9 10 10 8
94 98 99 99 97 88 84 83 70 79 81 79 77 73 70 42 14 8 8 9 10 11 15 11 24 73 34 25 32 35 36 36 25 17 17 14 12 10 12 11 9 8 9
99 98 98 98 97 86 89 86 89 82 79 76 74 77 52 15 9 9 10 11 12 15 49 17 13 51 90 48 40 39 37 29 18 19 17 15 13 15 14 10 9 14 30
98 92 98 98 91 97 92 92 84 78 75 74 69 36 13 10 10 12 13 15 16 46 74 46 19 31 38 53 48 47 34 24 20 22 19 16 16 17 12 11 15 34 49
98 90 99 97 99 99 87 83 78 69 51 28 14 10 10 12 13 14 16 18 20 20 19 22 27 33 51 80 94 89 70 35 24 25 22 18 19 17 13 14 30 49 52
79 99 95 89 88 86 85 76 50 33 17 12 10 11 12 13 15 17 20 20 22 20 22 28 40 56 86 100 100 100 96 24 26 28 25 21 20 18 18 24 44 49 52
99 98 86 81 88 86 65 43 25 15 12 11 12 13 15 17 18 18 20 21 20 22 32 73 94 92 100 100 100 100 91 28 28 31 28 25 22 20 19 26 53 56 51
94 96 88 83 85 58 40 17 13 12 12 13 14 16 18 20 19 16 14 15 14 23 38 50 73 83 74 66 56 49 38 35 31 32 32 28 24 23 19 31 54 58 47
87 96 86 78 58 26 15 13 13 13 14 16 19 19 16 12 11 16 24 26 31 51 47 49 75 88 93 85 60 41 36 36 32 34 34 31 28 27 20 38 59 62 52
80 82 76 49 21 16 13 13 15 18 22 20 10 6 6 6 8 16 28 34 55 62 57 61 86 98 98 99 78 50 41 40 33 34 37 35 32 30 21 34 64 69 65
86 73 33 22 16 13 13 19 22 19 9 6 5 5 5 5 5 64 97 72 89 75 68 63 50 78 98 98 95 67 48 45 40 34 45 36 38 34 24 26 67 77 76

GFSMA_700_rhum_075.txt.gz
RH
52 56 58 62 67 70 78 77 74 75 70 62 57 61 56 50 47 54 43 49 44 42 43 43 39 32 30 33 36 35 34 34 33 30 24 22 23 20 17 14 12 11 11
68 64 58 69 77 82 80 79 78 63 50 52 56 56 57 46 44 50 52 44 49 53 53 49 42 35 32 34 38 39 39 37 34 32 31 30 27 23 20 16 14 12 12
68 60 73 80 79 70 65 68 60 53 56 54 52 54 51 47 48 51 52 52 46 50 52 45 40 37 36 39 40 39 39 38 37 37 35 31 28 26 25 23 20 18 17
66 83 89 83 72 58 56 56 56 56 49 53 55 48 48 48 44 43 49 49 44 53 48 43 44 42 40 43 45 45 45 46 46 42 41 38 37 35 34 32 30 28 24
84 81 86 74 63 56 57 56 52 52 56 63 57 52 60 51 40 42 42 34 38 40 37 32 40 43 42 42 41 42 46 48 47 45 43 42 38 38 35 32 30 29 27
74 74 75 66 57 52 55 56 53 54 58 56 64 67 56 45 54 51 40 34 32 33 35 40 44 46 42 40 40 40 40 38 36 32 28 24 24 28 31 29 23 22 27
84 86 67 59 54 50 56 56 59 60 54 61 56 54 61 49 52 52 41 34 35 47 48 46 42 40 40 35 32 29 28 22 14 8 6 4 4 4 4 5 8 12 14
98 86 57 58 55 52 56 61 66 68 72 76 80 75 78 79 69 53 43 45 48 51 50 47 42 39 34 29 21 14 10 6 6 5 4 3 3 3 4 5 7 24 81
90 68 56 57 51 52 60 70 76 83 90 86 73 84 85 82 64 55 54 54 58 54 49 45 39 29 16 9 7 6 6 7 6 5 4 3 3 3 3 6 10 18 39
86 75 61 52 52 54 66 76 79 88 90 93 94 82 94 71 49 56 62 66 68 68 54 41 29 12 7 7 6 6 6 6 5 5 5 4 4 4 4 7 13 23 38
99 71 62 54 55 63 71 78 87 97 96 92 92 86 67 65 66 63 59 60 62 54 47 24 12 5 5 7 8 7 8 7 6 6 6 5 5 6 8 12 19 27 31
80 77 62 58 63 73 76 86 96 95 87 98 96 88 69 70 66 69 67 64 58 51 36 17 7 5 6 8 9 9 9 9 7 6 6 6 7 11 14 19 28 37 41
89 84 63 61 68 74 80 94 92 83 100 100 89 64 67 65 67 65 65 61 56 44 25 11 6 8 9 12 12 11 12 10 7 6 8 12 13 18 27 39 46 51 54
100 83 64 63 72 77 90 84 80 90 99 100 73 61 66 67 68 70 66 62 50 34 16 7 12 45 74 55 42 15 16 10 8 7 10 15 20 33 44 50 46 33 23
100 85 69 74 82 90 99 96 99 99 99 68 62 63 62 65 74 68 65 54 34 20 10 8 14 34 71 94 86 43 24 16 12 15 19 24 31 30 23 16 13 11 9
100 90 81 93 95 100 100 99 97 86 74 78 68 66 69 72 70 68 56 32 12 9 8 15 15 39 73 93 100 83 57 25 17 17 24 30 19 17 16 13 11 10 12
100 89 99 99 100 99 99 98 95 95 91 83 76 71 68 66 63 48 23 11 9 14 27 12 40 54 67 80 100 82 81 62 52 70 30 29 17 18 16 14 13 16 13
100 98 99 99 94 98 96 96 96 96 86 81 74 70 58 43 23 12 9 9 11 19 60 40 26 44 92 97 94 99 84 53 72 100 44 23 19 20 17 15 17 16 14
99 99 100 96 98 98 97 94 96 86 81 75 64 44 26 14 10 9 10 12 14 28 40 66 54 84 96 57 76 96 92 92 94 100 76 21 21 22 19 18 20 17 15
94 99 99 97 97 100 95 93 83 81 71 54 37 18 12 10 10 12 13 16 19 31 46 66 62 92 49 30 86 96 95 100 97 100 94 49 26 25 22 21 21 19 16
100 99 94 83 97 90 80 75 75 66 50 26 16 12 10 11 13 16 19 19 19 21 26 30 35 78 41 85 98 99 99 98 99 98 84 85 78 50 25 23 23 21 17
100 99 92 97 93 89 84 73 61 45 22 16 11 11 14 20 21 16 9 8 11 20 29 63 46 60 64 98 100 95 96 100 94 100 94 94 82 36 28 26 26 20 19
85 83 97 88 73 73 71 64 38 24 16 11 13 21 22 12 6 6 8 16 46 81 94 93 70 53 66 76 92 95 90 98 100 96 91 39 35 33 33 30 30 21 17
91 88 94 80 73 75 66 32 22 15 12 18 22 16 7 6 6 6 7 10 59 69 100 96 62 69 66 61 92 100 100 96 86 61 43 34 50 39 35 34 32 22 22
96 89 78 76 76 51 32 23 13 13 22 22 12 7 6 7 7 6 5 5 6 10 72 98 76 91 67 68 90 100 98 100 87 69 49 85 55 39 37 38 35 25 27
82 83 85 75 45 26 19 13 18 24 22 14 9 8 8 8 7 6 5 4 6 40 86 100 90 82 70 72 81 100 100 96 95 87 60 69 61 53 39 44 40 26 39